Weather History for KSGR - January, 2015

Change the Weather History Date:

Friday, January 30, 2015

  Actual Average Record
Temperature  
Mean Temperature 58 °F -  
Max Temperature 63 °F 65 °F 82 °F (1975)
Min Temperature 51 °F 44 °F 19 °F (1966)
Degree Days  
Heating Degree Days 8    
Growing Degree Days 8 (Base 50)    
Moisture  
Dew Point 40 °F    
Average Humidity 55    
Maximum Humidity 77    
Minimum Humidity 41    
Precipitation  
Precipitation 0.00 in - - ()
Sea Level Pressure  
Sea Level Pressure 30.34 in    
Wind  
Wind Speed 10 mph (ENE)    
Max Wind Speed 18 mph    
Max Gust Speed -    
Visibility 10 miles    
Events      
Averages and records for this station are not official NWS values.
T = Trace of Precipitation, MM = Missing Value Source: NWS Daily Summary

Daily Weather History Graph

Daily Weather History Graph

Search for Another Location

Airport or City:

Trip Planner

Search our weather history database for the weather conditions in past years. The results will help you decide how hot, cold, wet, or windy it might be!

Date:

Astronomy

Jan. 30, 2015 Rise Set
Actual Time 7:13 AM CST 5:58 PM CST
Civil Twilight 6:48 AM CST 6:23 PM CST
Nautical Twilight 6:19 AM CST 6:52 PM CST
Astronomical Twilight 5:51 AM CST 7:20 PM CST
Moon 2:37 PM CST (1/30) 3:41 AM CST (1/30)
Length of Visible Light 11h 35m
Length of Day
10h 45m
Waxing Gibbous, 84% of the Moon is Illuminated
Jan 30
Waxing Gibbous
Feb 3
Full
Feb 11
Last Quarter
Feb 18
New
Feb 25
First Quarter

Hourly Weather History & Observations

Time (CST) Temp. Dew Point Humidity Pressure Visibility Wind Dir Wind Speed Gust Speed Precip Events Conditions
12:53 AM 63.0 °F 43.0 °F 48% 30.31 in 10.0 mi NNE 11.5 mph - N/A   Clear
1:53 AM 61.0 °F 42.1 °F 50% 30.33 in 10.0 mi NNE 12.7 mph - N/A   Clear
2:53 AM 59.0 °F 42.1 °F 53% 30.34 in 10.0 mi NNE 9.2 mph - N/A   Partly Cloudy
3:53 AM 57.9 °F 41.0 °F 53% 30.33 in 10.0 mi NNE 18.4 mph - N/A   Partly Cloudy
4:53 AM 55.0 °F 39.9 °F 57% 30.34 in 10.0 mi NNE 12.7 mph - N/A   Clear
5:53 AM 53.1 °F 39.0 °F 59% 30.36 in 10.0 mi NNE 12.7 mph - N/A   Clear
6:53 AM 52.0 °F 39.0 °F 61% 30.38 in 10.0 mi NE 12.7 mph - N/A   Clear
7:53 AM 52.0 °F 39.9 °F 63% 30.39 in 10.0 mi NE 10.4 mph - N/A   Clear
8:53 AM 53.1 °F 39.9 °F 61% 30.41 in 10.0 mi NE 12.7 mph - N/A   Clear
9:53 AM 54.0 °F 39.9 °F 59% 30.42 in 10.0 mi ENE 12.7 mph - N/A   Clear
10:53 AM 57.0 °F 41.0 °F 55% 30.42 in 10.0 mi NE 11.5 mph - N/A   Clear
11:53 AM 57.0 °F 39.9 °F 53% 30.40 in 10.0 mi NE 9.2 mph - N/A   Clear
12:53 PM 59.0 °F 39.9 °F 49% 30.38 in 10.0 mi ESE 6.9 mph - N/A   Clear
1:53 PM 62.1 °F 39.9 °F 44% 30.34 in 10.0 mi ENE 6.9 mph - N/A   Clear
2:53 PM 62.1 °F 39.0 °F 43% 30.32 in 10.0 mi NE 3.5 mph - N/A   Clear
3:53 PM 62.1 °F 39.0 °F 43% 30.30 in 10.0 mi Variable 6.9 mph - N/A   Clear
4:53 PM 62.1 °F 37.9 °F 41% 30.29 in 10.0 mi East 5.8 mph - N/A   Clear
5:53 PM 60.1 °F 37.9 °F 44% 30.30 in 10.0 mi East 6.9 mph - N/A   Clear
6:53 PM 57.9 °F 37.9 °F 47% 30.30 in 10.0 mi ESE 5.8 mph - N/A   Clear
7:53 PM 55.9 °F 39.0 °F 53% 30.32 in 10.0 mi ESE 4.6 mph - N/A   Clear
8:53 PM 54.0 °F 42.1 °F 64% 30.33 in 10.0 mi ESE 4.6 mph - N/A   Clear
9:53 PM 53.1 °F 43.0 °F 69% 30.32 in 10.0 mi ESE 3.5 mph - N/A   Clear
10:53 PM 52.0 °F 43.0 °F 71% 30.30 in 10.0 mi East 4.6 mph - N/A   Clear
11:53 PM 51.1 °F 44.1 °F 77% 30.29 in 10.0 mi East 4.6 mph - N/A   Clear